DELTA 1 DEB, 21330

Orbit data source: Space-Track

DELTA 1 DEB, 21330 is space debris in SSO originally from a launch on Thu, 12 Jun 1975 UTC launched from the Air Force Western Test Range (AFWTR). Debris objects in space refer to the collection of defunct objects orbiting the Earth. Examples of debris include non-operational satellites, rocket bodies, and fragments generated from explosions, collisions, or faulty payload assembly.

Loading next visibility...
Identifier
21330, 1975-052AY
Orbit
SSO
Country
Flag of USUS
Related business
Manufacturer
Unknown
Mission
Spacecraft
Bus & Motor
Unknown
Mass
Unknown
Launch date (UTC)
1975-06-12 (51 years ago)
Launch vehicle
Unknown
Launch site
Air Force Western Test Range (AFWTR)
Object type
Payload
Rocket body
Debris
Shape & HBR
Unknown shape, 0.1 m
Radar Cross Section
Medium (>0.1 m² and <1 m²)

Expand to show TLE details & history
Last TLE update: 8 hours ago

TLE from 8 hours ago
0 DELTA 1 DEB
1 21330U 75052AY  26169.18930492  .00000442  00000-0  75370-3 0  9993
2 21330  99.9659  59.8634 0305829 330.8927 183.8638 13.33943148705415
Epoch: 2026-06-18T04:32Z
TLE epoch observation values (Epoch: 2026-06-18T04:32:35.945Z)
Latitude
25.08701°
Longitude
-90.02733°
Altitude
1,364.052 km
Speed
7.068 km/s
True Right ascension
16h 18m 14s
True Declination
24° 57' 56"
Sunlit
Object was in full shadow at epoch
Visualization orbit readout
Latitude
Unknown
Longitude
Unknown
Altitude
Unknown
Speed
Unknown
Apparent Right ascension
Unknown
Apparent Declination
Unknown
Sunlit
N/A
Visualization observer readout
Local Sidereal Time
23:00:53
Azimuth
Unknown
Elevation
Unknown
Doppler factor
Unknown
Orbital elements
Apogee altitude
1,358.858 km
Perigee altitude
899.662 km
Semi-major axis
7,507.397 km
Eccentricity
0.03058
Inclination
99.9659°
RAAN
59.8634°
Arg. of periapsis
330.8927°
True anomaly
183.63634°
Mean anomaly
183.8638°
Eccentric anomaly
183.74922°
Mean motion
3.33664 °/min
Orbital period
107.89 mins
BSTAR
0.0007537
Loading maneuver chart data...
Computing Atmospheric mass density...

Documentation

Showing up to 5 results
|